地球静止运行环境卫星 15 星 (EWS-G2 (GOES 15))

导读 | 豆包AI

GOES 15是美国于2010年3月4日发射的地球静止环境业务卫星,隶属于美国国家海洋和大气管理局(NOAA),主要承担气象观测、天气预警与预报任务。它运行在地球静止轨道,可持续监测西半球大气与海洋环境,为气象研究和防灾减灾提供关键数据,是美国GOES系列气象卫星中承前启后的重要成员,至今仍为全球气象观测网络贡献力量。

基本信息
目录编号:
36411
目录名称:
GOES 15
国际标识:
2010-008A
轨道中心:
EARTH
卫星名称:
地球静止运行环境卫星 15 星
卫星全名:
地球静止运行环境卫星 15 星 (EWS-G2 (GOES 15))
卫星状态:
在轨 (已飞行5855 天)
发射日期:
2010-03-04 UTC
国别 :
美国 (US)
星等 :
--
轨道信息
数据来源 国际轨道数据 AOE轨道数据
星历时间 2026-03-15T06:30:10+0800
11小时前
查看轨道信息
2026-03-15T09:00:00+0800
9小时前
查看轨道信息
半长轴 42165.177km 42165.261km
偏心率 0.0002496 0.000252
轨道倾角 1.033° 1.033°
近地点辐角 17.692° 17.587°
升交点赤经 84.903° 84.910°
平近点角 110.888° 148.545°
近地点 35776.515km 35776.498km
远地点 35797.565km 35797.75km
周期 1436.120分钟 1436.124分钟
每日圈数 1.002702 1.002699
详细信息
卫星平台:
BSS-601
平衡模式:
三轴稳定
覆盖范围:
全球
制造商(研发单位):
波音公司
制造商所在国:
美国
使用方式:
暂无
卫星简介
地球静止环境业务卫星是美国国家海洋和大气管理局(NOAA)与美国国家航空航天局(NASA)共同发展的民用静止轨道气象系列卫星。[1]美国第一代地球静止轨道气象卫星系列。英文缩写为GOES。该卫星仍在工作。
2D轨道图
3D轨道图
轨道高度分析图
轨道倾角分析图
轨道综合分析图
查看轨道综合分析图